Home > Weather > Philipsburg > Past weeks

Flag for Sint Maarten Weather for the Past 2 Weeks in Philipsburg, Sint Maarten

Now
79 °F

Passing clouds.


Feels Like: 81 °F
Forecast: 76 / 82 °F
Wind: 8 mph from East

Location: Juliana Airport - Saint Maarten

Current Time: Feb 10, 2016 at 8:57:13 PM

Latest Report: Feb 10, 2016 at 8:00 PM


Visibility: N/A

Pressure: 30.09 "Hg

Humidity: 74%

Dew point: 70 °F

Location of PhilipsburgLocation

Historic Weather in Philipsburg — Graph

°F

Philipsburg Temperature Yesterday

Maximum temperature yesterday: 82 °F (at 10:00 AM)
Minimum temperature yesterday: 79 °F (at 12:00 AM)
Average temperature yesterday: 80 °F

High & Low Weather Summary for the Past Weeks

 TemperatureHumidityPressure
High84 °F (Jan 27, 1:00 PM)100% (Jan 30, 1:00 AM)30.15 "Hg (Jan 30, 1:00 AM)
Low73 °F (Jan 30, 12:00 AM)54% (Feb 4, 3:00 PM)29.86 "Hg (Feb 4, 3:00 PM)
Average79 °F74%30.04 "Hg
* Reported Jan 26 7:00 PM — Feb 10 7:00 PM, Philipsburg, Weather by CustomWeather, © 2016

Note: Actual official high and low records may vary slightly from our data, if they occured in-between our weather recording intervals... More about our weather records

Advertising

Philipsburg Weather History for the Previous 24 Hours

 ConditionsComfort  
Time TempWeatherWind HumidityBarometerVisibility
7:00 PM
Wed, Feb 10
79 °FPassing clouds.9 mph70%30.07 "HgN/A
5:00 PM81 °FPassing clouds.10 mph66%30.04 "HgN/A
4:00 PM82 °FPassing clouds.10 mph66%30.04 "HgN/A
3:00 PM82 °FPassing clouds.10 mph62%30.04 "HgN/A
2:00 PM82 °FPassing clouds.12 mph62%30.07 "HgN/A
1:00 PM82 °FScattered clouds.12 mph66%30.09 "HgN/A
12:00 PM82 °FScattered clouds.10 mph70%30.12 "HgN/A
11:00 AM81 °FSprinkles. Scattered clouds.16 mph70%30.12 "HgN/A
10:00 AM81 °FPassing clouds.13 mph70%30.15 "HgN/A
9:00 AM81 °FScattered showers. Scattered clouds.9 mph70%30.12 "HgN/A
8:00 AM79 °FScattered clouds.9 mph74%30.12 "HgN/A
7:00 AM79 °FPassing clouds.13 mph74%30.09 "HgN/A
6:00 AM79 °FPassing clouds.14 mph74%30.07 "HgN/A
5:00 AM77 °FPassing clouds.9 mph83%30.07 "HgN/A
4:00 AM77 °FPartly cloudy.10 mph83%30.07 "HgN/A
3:00 AM77 °FPassing clouds.8 mph83%30.07 "HgN/A
2:00 AM79 °FPartly cloudy.9 mph79%30.07 "HgN/A
1:00 AM79 °FSprinkles. Passing clouds.9 mph79%N/AN/A
12:00 AM79 °FPassing clouds.10 mph79%30.09 "HgN/A
11:00 PM
Tue, Feb 9
79 °FPassing clouds.9 mph79%30.12 "HgN/A
10:00 PM79 °FPassing clouds.10 mph74%30.12 "HgN/A
9:00 PM79 °FPassing clouds.13 mph79%30.09 "HgN/A
8:00 PM79 °FPassing clouds.10 mph79%30.09 "HgN/A
Weather by CustomWeather, © 2016

See weather overviewHow to use our weather pages